星链-3271 (STARLINK-3271 )

导读

STARLINK-3271是美国SpaceX公司星链互联网卫星星座的成员,于2021年12月18日由美国发射升空。星链项目旨在通过近地轨道卫星星座为全球提供高速低延迟的宽带互联网接入,尤其覆盖偏远与网络空白区域。STARLINK-3271承担星座组网任务,助力星链实现全球覆盖,支撑地面消费互联网、物联网及特殊场景通信服务,是SpaceX大规模部署星链星座过程中的一环,推动低轨卫星互联网商业化发展。

基本信息
目录编号:
50167
目录名称:
STARLINK-3271
国际标识:
2021-125M
轨道中心:
EARTH
卫星名称:
星链-3271
卫星全名:
星链-3271 (STARLINK-3271 )
卫星状态:
在轨 (已飞行1642 天)
发射日期:
2021-12-18 UTC
国别 :
美国 (US)
星等 :
--
轨道信息
数据来源 国际轨道数据 AOE轨道数据
星历时间 2026-06-17T01:07:07+0800
1天前
查看轨道信息
2026-06-14T08:00:00+0800
3天前
查看轨道信息
半长轴 6917.885km 6917.949km
偏心率 0.0001515 0.0002448
轨道倾角 53.160° 53.158°
近地点辐角 65.757° 114.945°
升交点赤经 174.503° 186.703°
平近点角 294.358° 259.048°
近地点 538.699km 538.118km
远地点 540.797km 541.506km
周期 95.438分钟 95.439分钟
每日圈数 15.088387 15.088178
详细信息
固有亮度:
5
最大亮度:
2.5
卫星平台:
Starlink v1.5
覆盖范围:
全球
运营商:
太空探索技术公司
运营商所在国:
美国
制造商(研发单位):
太空探索技术公司
制造商所在国:
美国
使用方式:
暂无
卫星简介
星链(Starlink)计划是由太空探索技术公司(SpaceX)提出的一个巨型低轨卫星互联网星座项目,计划在2019年至2024年间在太空搭建由约1.2万颗卫星组成的“星链”网络,其中1584颗将部署在地球上空550千米处的近地轨道,并从2020年开始工作。该卫星仍在工作。
2D轨道图
3D轨道图
轨道高度分析图
轨道倾角分析图
轨道综合分析图
查看轨道综合分析图